Powrót do katalogu

SL-14 DEB

AktywnyPO
NORAD 45271·DEBRIS·🇷🇺 Russia

Wystrzelony Aug 15, 1991 z Plesetsk Cosmodrome

Loading…

Następne Przeloty (najbliższe 24 godziny)

TLE

ŚwieżeSource: Space-Track

Epoka: Sep 13, 2026, 23:38 UTC

1 45271U 91056H   26256.98508216 -.00000016  00000-0 -84610-4 0  9992
2 45271  82.3845  95.4964 0050696 127.0317 233.5453 13.06728279313439

Śledź SL-14 DEB w czasie rzeczywistym z AllMySat

Download on the App Store